Time,TemperatureF,DewpointF,PressureIn,WindDirection,WindDirectionDegrees,WindSpeedMPH,WindSpeedGustMPH,Humidity,HourlyPrecipIn,Conditions,Clouds,dailyrainin,SoftwareType,DateUTC
2013-06-06 00:01:00,57.2,42.7,30.11,SSE,158,0.9,0.9,58,0.00,,,0.00,WUHU216HW,2013-06-06 04:01:00,
2013-06-06 00:02:00,57.0,42.5,30.11,SSE,158,1.3,1.3,58,0.00,,,0.00,WUHU216HW,2013-06-06 04:02:00,
2013-06-06 00:05:00,57.0,42.5,30.11,ESE,113,1.1,1.3,58,0.00,,,0.00,WUHU216HW,2013-06-06 04:05:00,
2013-06-06 00:10:00,57.0,42.5,30.11,NE,45,0.0,1.3,58,0.00,,,0.00,WUHU216HW,2013-06-06 04:10:00,
2013-06-06 00:15:00,56.9,42.4,30.11,ENE,68,0.4,1.1,58,0.00,,,0.00,WUHU216HW,2013-06-06 04:15:00,
2013-06-06 00:20:00,56.7,42.2,30.11,NE,45,0.0,0.4,58,0.00,,,0.00,WUHU216HW,2013-06-06 04:20:00,
2013-06-06 00:26:00,56.7,42.2,30.11,SE,135,0.4,0.4,58,0.00,,,0.00,WUHU216HW,2013-06-06 04:26:00,
2013-06-06 00:31:00,56.7,42.6,30.11,SE,135,0.4,0.4,59,0.00,,,0.00,WUHU216HW,2013-06-06 04:31:00,
2013-06-06 00:36:00,56.7,42.6,30.11,NE,45,0.4,0.4,59,0.00,,,0.00,WUHU216HW,2013-06-06 04:36:00,
2013-06-06 00:41:00,86.0,-11.1,30.11,ESE,113,1.3,1.3,1,0.00,,,0.00,WUHU216HW,2013-06-06 04:41:00,
2013-06-06 00:46:00,75.5,34.3,30.10,ENE,68,1.1,1.3,22,0.00,,,0.00,WUHU216HW,2013-06-06 04:46:00,
2013-06-06 00:52:00,75.8,43.7,30.10,SE,135,0.9,1.3,32,0.00,,,0.00,WUHU216HW,2013-06-06 04:52:00,
2013-06-06 00:57:00,56.7,43.5,30.10,SE,135,0.9,1.1,61,0.00,,,0.00,WUHU216HW,2013-06-06 04:57:00,
2013-06-06 01:02:00,56.5,43.3,30.10,SE,135,0.7,0.9,61,0.00,,,0.00,WUHU216HW,2013-06-06 05:02:00,
2013-06-06 01:07:00,56.1,43.4,30.11,SSE,158,0.0,0.9,62,0.00,,,0.00,WUHU216HW,2013-06-06 05:07:00,
2013-06-06 01:12:00,56.0,43.3,30.11,NNW,338,1.1,1.1,62,0.00,,,0.00,WUHU216HW,2013-06-06 05:12:00,
2013-06-06 01:17:00,56.0,43.7,30.10,NE,45,0.2,1.1,63,0.00,,,0.00,WUHU216HW,2013-06-06 05:17:00,
2013-06-06 01:22:00,55.6,43.7,30.11,WNW,293,0.0,1.1,64,0.00,,,0.00,WUHU216HW,2013-06-06 05:22:00,
2013-06-06 01:27:00,55.6,43.7,30.12,WNW,293,0.0,1.1,64,0.00,,,0.00,WUHU216HW,2013-06-06 05:27:00,
2013-06-06 01:32:00,55.4,43.6,30.12,WNW,293,0.0,0.0,64,0.00,,,0.00,WUHU216HW,2013-06-06 05:32:00,
2013-06-06 01:37:00,55.2,43.4,30.12,WNW,293,0.0,0.0,64,0.00,,,0.00,WUHU216HW,2013-06-06 05:37:00,
2013-06-06 01:42:00,55.2,43.8,30.12,ENE,68,0.0,0.0,65,0.00,,,0.00,WUHU216HW,2013-06-06 05:42:00,
2013-06-06 01:47:00,55.1,43.7,30.12,ESE,113,0.2,0.2,65,0.00,,,0.00,WUHU216HW,2013-06-06 05:47:00,
2013-06-06 01:52:00,54.9,43.5,30.12,ESE,113,0.4,0.4,65,0.00,,,0.00,WUHU216HW,2013-06-06 05:52:00,
2013-06-06 01:58:00,55.2,44.2,30.12,ESE,113,0.0,0.4,66,0.00,,,0.00,WUHU216HW,2013-06-06 05:58:00,
2013-06-06 02:03:00,55.2,44.2,30.11,SE,135,0.4,0.4,66,0.00,,,0.00,WUHU216HW,2013-06-06 06:03:00,
2013-06-06 02:08:00,55.2,44.6,30.12,SE,135,0.0,0.4,67,0.00,,,0.00,WUHU216HW,2013-06-06 06:08:00,
2013-06-06 02:13:00,54.7,44.1,30.12,SE,135,0.0,0.4,67,0.00,,,0.00,WUHU216HW,2013-06-06 06:13:00,
2013-06-06 02:18:00,54.5,43.9,30.12,SE,135,0.0,0.0,67,0.00,,,0.00,WUHU216HW,2013-06-06 06:18:00,
2013-06-06 02:23:00,54.3,44.1,30.12,SE,135,0.0,0.4,68,0.00,,,0.00,WUHU216HW,2013-06-06 06:23:00,
2013-06-06 02:28:00,54.2,44.0,30.11,SE,135,0.0,0.4,68,0.00,,,0.00,WUHU216HW,2013-06-06 06:28:00,
2013-06-06 02:33:00,54.0,44.2,30.11,SE,135,0.0,0.0,69,0.00,,,0.00,WUHU216HW,2013-06-06 06:33:00,
2013-06-06 02:38:00,54.0,44.2,30.12,SE,135,0.0,0.0,69,0.00,,,0.00,WUHU216HW,2013-06-06 06:38:00,
2013-06-06 02:43:00,54.0,44.2,30.12,SE,135,0.0,0.0,69,0.00,,,0.00,WUHU216HW,2013-06-06 06:43:00,
2013-06-06 02:48:00,53.8,44.0,30.11,SE,135,0.0,0.0,69,0.00,,,0.00,WUHU216HW,2013-06-06 06:48:00,
2013-06-06 02:53:00,53.8,44.0,30.11,SE,135,0.0,0.0,69,0.00,,,0.00,WUHU216HW,2013-06-06 06:53:00,
2013-06-06 02:58:00,53.8,44.4,30.11,East,90,0.4,0.4,70,0.00,,,0.00,WUHU216HW,2013-06-06 06:58:00,
2013-06-06 03:03:00,53.8,44.4,30.11,SE,135,0.4,1.6,70,0.00,,,0.00,WUHU216HW,2013-06-06 07:03:00,
2013-06-06 03:08:00,53.8,44.4,30.11,SE,135,0.2,1.6,70,0.00,,,0.00,WUHU216HW,2013-06-06 07:08:00,
2013-06-06 03:13:00,54.9,46.9,30.11,SE,135,0.0,0.4,74,0.00,,,0.00,WUHU216HW,2013-06-06 07:13:00,
2013-06-06 03:18:00,54.9,47.2,30.11,SE,135,0.0,0.2,75,0.00,,,0.00,WUHU216HW,2013-06-06 07:18:00,
2013-06-06 03:23:00,59.6,54.8,30.11,NNE,23,0.0,0.0,84,0.00,,,0.00,WUHU216HW,2013-06-06 07:23:00,
2013-06-06 03:29:00,53.8,45.4,30.11,NNE,23,0.0,0.0,73,0.00,,,0.00,WUHU216HW,2013-06-06 07:29:00,
2013-06-06 03:34:00,53.3,45.0,30.11,ESE,113,0.0,0.2,73,0.00,,,0.00,WUHU216HW,2013-06-06 07:34:00,
2013-06-06 03:39:00,53.1,44.8,30.11,SE,135,0.4,0.4,73,0.00,,,0.00,WUHU216HW,2013-06-06 07:39:00,
2013-06-06 03:44:00,53.1,44.8,30.11,ESE,113,0.4,0.7,73,0.00,,,0.00,WUHU216HW,2013-06-06 07:44:00,
2013-06-06 03:49:00,52.9,44.6,30.11,ESE,113,0.4,0.7,73,0.00,,,0.00,WUHU216HW,2013-06-06 07:49:00,
2013-06-06 03:54:00,52.9,44.6,30.11,SE,135,0.4,0.4,73,0.00,,,0.00,WUHU216HW,2013-06-06 07:54:00,
2013-06-06 03:59:00,52.7,44.7,30.10,SSE,158,0.2,0.4,74,0.00,,,0.00,WUHU216HW,2013-06-06 07:59:00,
2013-06-06 04:04:00,52.5,44.5,30.10,SE,135,0.7,0.7,74,0.00,,,0.00,WUHU216HW,2013-06-06 08:04:00,
2013-06-06 04:09:00,52.4,44.8,30.10,SE,135,0.4,0.7,75,0.00,,,0.00,WUHU216HW,2013-06-06 08:09:00,
2013-06-06 04:14:00,52.4,44.8,30.10,SE,135,0.4,0.7,75,0.00,,,0.00,WUHU216HW,2013-06-06 08:14:00,
2013-06-06 04:19:00,52.4,44.8,30.10,SE,135,0.2,0.4,75,0.00,,,0.00,WUHU216HW,2013-06-06 08:19:00,
2013-06-06 04:24:00,52.7,45.8,30.09,ESE,113,0.0,0.4,77,0.00,,,0.00,WUHU216HW,2013-06-06 08:24:00,
2013-06-06 04:29:00,53.8,48.1,30.10,SE,135,0.0,0.4,81,0.00,,,0.00,WUHU216HW,2013-06-06 08:29:00,
2013-06-06 04:34:00,53.3,47.3,30.10,SE,135,0.0,0.0,80,0.00,,,0.00,WUHU216HW,2013-06-06 08:34:00,
2013-06-06 04:39:00,52.9,46.3,30.10,SE,135,0.0,0.0,78,0.00,,,0.00,WUHU216HW,2013-06-06 08:39:00,
2013-06-06 04:44:00,52.5,45.9,30.10,SE,135,0.4,0.4,78,0.00,,,0.00,WUHU216HW,2013-06-06 08:44:00,
2013-06-06 04:49:00,52.4,45.5,30.10,SE,135,0.0,0.4,77,0.00,,,0.00,WUHU216HW,2013-06-06 08:49:00,
2013-06-06 04:54:00,52.4,45.5,30.10,SE,135,0.0,0.4,77,0.00,,,0.00,WUHU216HW,2013-06-06 08:54:00,
2013-06-06 04:59:00,52.4,45.5,30.09,SE,135,0.0,0.0,77,0.00,,,0.00,WUHU216HW,2013-06-06 08:59:00,
2013-06-06 05:05:00,52.4,45.5,30.09,SE,135,0.0,0.0,77,0.00,,,0.00,WUHU216HW,2013-06-06 09:05:00,
2013-06-06 05:10:00,52.4,45.5,30.10,SE,135,0.0,0.0,77,0.00,,,0.00,WUHU216HW,2013-06-06 09:10:00,
2013-06-06 05:15:00,52.2,45.3,30.10,SE,135,0.2,0.2,77,0.00,,,0.00,WUHU216HW,2013-06-06 09:15:00,
2013-06-06 05:20:00,52.2,45.6,30.10,SE,135,0.4,0.7,78,0.00,,,0.00,WUHU216HW,2013-06-06 09:20:00,
2013-06-06 05:25:00,52.2,45.6,30.10,SE,135,0.2,0.7,78,0.00,,,0.00,WUHU216HW,2013-06-06 09:25:00,
2013-06-06 05:30:00,52.4,45.8,30.09,SE,135,0.4,0.4,78,0.00,,,0.00,WUHU216HW,2013-06-06 09:30:00,
2013-06-06 05:35:00,52.4,45.8,30.09,North,0,0.2,0.4,78,0.00,,,0.00,WUHU216HW,2013-06-06 09:35:00,
2013-06-06 05:40:00,53.3,48.0,30.09,SE,135,0.0,0.4,82,0.00,,,0.00,WUHU216HW,2013-06-06 09:40:00,
2013-06-06 05:45:00,70.7,70.4,30.09,NNW,338,0.0,0.2,99,0.00,,,0.00,WUHU216HW,2013-06-06 09:45:00,
2013-06-06 05:50:00,54.5,50.7,30.10,NW,315,0.0,0.0,87,0.00,,,0.00,WUHU216HW,2013-06-06 09:50:00,
2013-06-06 05:55:00,83.3,83.0,30.10,WNW,293,0.7,0.7,99,0.00,,,0.00,WUHU216HW,2013-06-06 09:55:00,
2013-06-06 06:00:00,53.4,47.4,30.10,NW,315,0.2,0.7,80,0.00,,,0.00,WUHU216HW,2013-06-06 10:00:00,
2013-06-06 06:05:00,53.3,47.3,30.10,NW,315,0.0,0.7,80,0.00,,,0.00,WUHU216HW,2013-06-06 10:05:00,
2013-06-06 06:10:00,53.1,47.1,30.10,ESE,113,0.0,0.2,80,0.00,,,0.00,WUHU216HW,2013-06-06 10:10:00,
2013-06-06 06:15:00,53.1,47.1,30.10,ENE,68,0.0,0.0,80,0.00,,,0.00,WUHU216HW,2013-06-06 10:15:00,
2013-06-06 06:20:00,53.1,47.1,30.10,East,90,0.0,0.0,80,0.00,,,0.00,WUHU216HW,2013-06-06 10:20:00,
2013-06-06 06:26:00,53.3,47.3,30.10,NW,315,0.0,0.0,80,0.00,,,0.00,WUHU216HW,2013-06-06 10:26:00,
2013-06-06 06:31:00,53.3,47.3,30.10,East,90,0.0,0.0,80,0.00,,,0.00,WUHU216HW,2013-06-06 10:31:00,
2013-06-06 06:36:00,53.3,47.3,30.10,East,90,0.0,0.0,80,0.00,,,0.00,WUHU216HW,2013-06-06 10:36:00,
2013-06-06 06:41:00,53.4,47.4,30.10,SE,135,0.4,0.4,80,0.00,,,0.00,WUHU216HW,2013-06-06 10:41:00,
2013-06-06 06:46:00,53.4,47.4,30.10,SE,135,1.1,1.1,80,0.00,,,0.00,WUHU216HW,2013-06-06 10:46:00,
2013-06-06 06:51:00,53.6,47.9,30.10,ENE,68,0.4,1.1,81,0.00,,,0.00,WUHU216HW,2013-06-06 10:51:00,
2013-06-06 06:57:00,54.2,49.5,30.10,NNW,338,0.0,1.1,84,0.00,,,0.00,WUHU216HW,2013-06-06 10:57:00,
2013-06-06 07:02:00,54.5,50.4,30.10,ESE,113,0.4,0.4,86,0.00,,,0.00,WUHU216HW,2013-06-06 11:02:00,
2013-06-06 07:07:00,55.8,53.2,30.10,West,270,0.0,0.4,91,0.00,,,0.00,WUHU216HW,2013-06-06 11:07:00,
2013-06-06 07:12:00,59.9,59.6,30.10,East,90,0.2,0.4,99,0.00,,,0.00,WUHU216HW,2013-06-06 11:12:00,
2013-06-06 07:17:00,54.3,49.3,30.10,SSE,158,0.9,0.9,83,0.00,,,0.00,WUHU216HW,2013-06-06 11:17:00,
2013-06-06 07:22:00,54.2,48.8,30.10,NNE,23,0.4,1.3,82,0.00,,,0.00,WUHU216HW,2013-06-06 11:22:00,
2013-06-06 07:27:00,54.2,49.2,30.10,SSE,158,0.2,1.3,83,0.00,,,0.00,WUHU216HW,2013-06-06 11:27:00,
2013-06-06 07:32:00,54.3,49.3,30.10,SSE,158,0.9,2.5,83,0.00,,,0.00,WUHU216HW,2013-06-06 11:32:00,
2013-06-06 07:37:00,54.3,48.9,30.10,SSE,158,1.6,2.5,82,0.00,,,0.00,WUHU216HW,2013-06-06 11:37:00,
2013-06-06 07:42:00,54.5,49.5,30.10,East,90,0.4,2.0,83,0.00,,,0.00,WUHU216HW,2013-06-06 11:42:00,
2013-06-06 07:47:00,54.5,49.1,30.10,East,90,0.9,1.6,82,0.00,,,0.00,WUHU216HW,2013-06-06 11:47:00,
2013-06-06 07:52:00,54.5,49.5,30.10,SSE,158,1.1,1.1,83,0.00,,,0.00,WUHU216HW,2013-06-06 11:52:00,
2013-06-06 07:57:00,54.7,49.7,30.10,NNW,338,0.4,1.1,83,0.00,,,0.00,WUHU216HW,2013-06-06 11:57:00,
2013-06-06 08:02:00,54.7,49.7,30.09,NE,45,0.4,1.1,83,0.00,,,0.00,WUHU216HW,2013-06-06 12:02:00,
2013-06-06 08:07:00,54.9,49.9,30.09,ESE,113,0.7,0.7,83,0.00,,,0.00,WUHU216HW,2013-06-06 12:07:00,
2013-06-06 08:13:00,55.1,50.0,30.09,East,90,0.4,0.7,83,0.00,,,0.00,WUHU216HW,2013-06-06 12:13:00,
2013-06-06 08:18:00,56.7,53.5,30.10,ENE,68,0.7,1.3,89,0.00,,,0.00,WUHU216HW,2013-06-06 12:18:00,
2013-06-06 08:23:00,57.4,54.8,30.10,ESE,113,2.2,2.2,91,0.00,,,0.00,WUHU216HW,2013-06-06 12:23:00,
2013-06-06 08:28:00,58.8,57.3,30.10,SSE,158,3.4,3.4,95,0.00,,,0.00,WUHU216HW,2013-06-06 12:28:00,
2013-06-06 08:33:00,57.0,52.2,30.10,West,270,2.0,3.4,84,0.00,,,0.00,WUHU216HW,2013-06-06 12:33:00,
2013-06-06 08:38:00,57.2,52.1,30.10,NW,315,2.0,3.4,83,0.00,,,0.00,WUHU216HW,2013-06-06 12:38:00,
2013-06-06 08:43:00,57.4,52.3,30.10,WNW,293,0.4,2.0,83,0.00,,,0.00,WUHU216HW,2013-06-06 12:43:00,
2013-06-06 08:48:00,57.6,52.2,30.10,SW,225,1.1,2.0,82,0.00,,,0.00,WUHU216HW,2013-06-06 12:48:00,
2013-06-06 08:53:00,57.8,52.0,30.10,West,270,0.4,1.1,81,0.00,,,0.00,WUHU216HW,2013-06-06 12:53:00,
2013-06-06 08:58:00,58.1,52.0,30.10,NE,45,1.1,2.7,80,0.00,,,0.00,WUHU216HW,2013-06-06 12:58:00,
2013-06-06 09:03:00,58.1,52.0,30.10,ESE,113,0.4,2.7,80,0.00,,,0.00,WUHU216HW,2013-06-06 13:03:00,
2013-06-06 09:08:00,58.3,51.9,30.10,SE,135,1.8,2.5,79,0.00,,,0.00,WUHU216HW,2013-06-06 13:08:00,
2013-06-06 09:13:00,58.5,52.1,30.10,SE,135,1.1,2.5,79,0.00,,,0.00,WUHU216HW,2013-06-06 13:13:00,
2013-06-06 09:19:00,58.8,52.0,30.10,ENE,68,0.4,1.8,78,0.00,,,0.00,WUHU216HW,2013-06-06 13:19:00,
2013-06-06 09:24:00,59.0,52.2,30.10,ESE,113,1.8,2.9,78,0.00,,,0.00,WUHU216HW,2013-06-06 13:24:00,
2013-06-06 09:29:00,59.6,53.5,30.09,SSE,158,3.6,3.6,80,0.00,,,0.00,WUHU216HW,2013-06-06 13:29:00,
2013-06-06 09:34:00,60.1,54.3,30.09,SSE,158,1.1,3.6,81,0.00,,,0.00,WUHU216HW,2013-06-06 13:34:00,
2013-06-06 09:39:00,63.3,59.7,30.10,North,0,1.8,3.6,88,0.00,,,0.00,WUHU216HW,2013-06-06 13:39:00,
2013-06-06 09:44:00,60.6,53.8,30.10,SE,135,2.0,2.7,78,0.00,,,0.00,WUHU216HW,2013-06-06 13:44:00,
2013-06-06 09:49:00,60.5,53.3,30.09,SSE,158,1.8,2.0,77,0.00,,,0.00,WUHU216HW,2013-06-06 13:49:00,
2013-06-06 09:54:00,60.5,53.0,30.09,SE,135,1.8,2.0,76,0.00,,,0.00,WUHU216HW,2013-06-06 13:54:00,
2013-06-06 09:59:00,60.6,53.1,30.09,SSE,158,1.3,1.8,76,0.00,,,0.00,WUHU216HW,2013-06-06 13:59:00,
2013-06-06 10:04:00,60.8,53.3,30.09,SSE,158,3.4,3.8,76,0.00,,,0.00,WUHU216HW,2013-06-06 14:04:00,
2013-06-06 10:09:00,61.0,53.1,30.08,ESE,113,0.9,3.8,75,0.00,,,0.00,WUHU216HW,2013-06-06 14:09:00,
2013-06-06 10:14:00,61.4,53.2,30.08,ESE,113,1.6,3.4,74,0.00,,,0.00,WUHU216HW,2013-06-06 14:14:00,
2013-06-06 10:19:00,61.7,53.4,30.08,SSE,158,0.4,1.6,74,0.00,,,0.00,WUHU216HW,2013-06-06 14:19:00,
2013-06-06 10:24:00,61.9,53.6,30.08,SE,135,1.8,2.2,74,0.00,,,0.00,WUHU216HW,2013-06-06 14:24:00,
2013-06-06 10:29:00,62.1,53.5,30.07,East,90,0.7,2.2,73,0.00,,,0.00,WUHU216HW,2013-06-06 14:29:00,
2013-06-06 10:35:00,62.3,53.3,30.07,NW,315,1.3,2.0,72,0.00,,,0.00,WUHU216HW,2013-06-06 14:35:00,
2013-06-06 10:40:00,62.4,53.0,30.08,SSE,158,1.3,2.0,71,0.00,,,0.00,WUHU216HW,2013-06-06 14:40:00,
2013-06-06 10:45:00,62.4,53.0,30.07,SSE,158,1.3,1.8,71,0.00,,,0.00,WUHU216HW,2013-06-06 14:45:00,
2013-06-06 10:50:00,63.3,54.3,30.08,ESE,113,4.3,4.3,72,0.00,,,0.00,WUHU216HW,2013-06-06 14:50:00,
2013-06-06 10:55:00,64.1,54.6,30.08,SSE,158,1.8,4.3,71,0.00,,,0.00,WUHU216HW,2013-06-06 14:55:00,
2013-06-06 11:00:00,64.4,54.6,30.07,SW,225,0.4,4.3,70,0.00,,,0.00,WUHU216HW,2013-06-06 15:00:00,
2013-06-06 11:05:00,64.1,53.9,30.07,SE,135,2.5,2.5,69,0.00,,,0.00,WUHU216HW,2013-06-06 15:05:00,
2013-06-06 11:10:00,64.1,53.9,30.07,East,90,1.1,2.5,69,0.00,,,0.00,WUHU216HW,2013-06-06 15:10:00,
2013-06-06 11:15:00,64.2,53.6,30.07,SSW,203,1.1,2.7,68,0.00,,,0.00,WUHU216HW,2013-06-06 15:15:00,
2013-06-06 11:20:00,64.2,53.6,30.07,SE,135,1.6,2.7,68,0.00,,,0.00,WUHU216HW,2013-06-06 15:20:00,
2013-06-06 11:25:00,64.6,53.6,30.07,SE,135,3.4,4.0,67,0.00,,,0.00,WUHU216HW,2013-06-06 15:25:00,
2013-06-06 11:30:00,64.6,53.1,30.07,SSE,158,1.6,4.0,66,0.00,,,0.00,WUHU216HW,2013-06-06 15:30:00,
2013-06-06 11:35:00,64.8,53.3,30.07,NW,315,1.6,3.4,66,0.00,,,0.00,WUHU216HW,2013-06-06 15:35:00,
2013-06-06 11:40:00,64.8,53.3,30.07,South,180,3.8,4.9,66,0.00,,,0.00,WUHU216HW,2013-06-06 15:40:00,
2013-06-06 11:45:00,65.0,53.1,30.07,ESE,113,1.1,4.9,65,0.00,,,0.00,WUHU216HW,2013-06-06 15:45:00,
2013-06-06 11:50:00,65.3,53.0,30.07,SE,135,2.2,3.8,64,0.00,,,0.00,WUHU216HW,2013-06-06 15:50:00,
2013-06-06 11:55:00,65.5,52.3,30.06,ESE,113,4.5,4.5,62,0.00,,,0.00,WUHU216HW,2013-06-06 15:55:00,
2013-06-06 12:00:00,66.4,52.3,30.06,SE,135,0.9,4.5,60,0.00,,,0.00,WUHU216HW,2013-06-06 16:00:00,
2013-06-06 12:05:00,66.8,52.2,30.06,SE,135,3.1,4.5,59,0.00,,,0.00,WUHU216HW,2013-06-06 16:05:00,
2013-06-06 12:10:00,67.3,51.7,30.05,SSE,158,1.6,3.1,57,0.00,,,0.00,WUHU216HW,2013-06-06 16:10:00,
2013-06-06 12:15:00,65.9,51.8,30.05,SE,135,5.4,5.4,60,0.00,,,0.00,WUHU216HW,2013-06-06 16:15:00,
2013-06-06 12:21:00,65.7,52.0,30.05,SE,135,2.7,5.4,61,0.00,,,0.00,WUHU216HW,2013-06-06 16:21:00,
2013-06-06 12:26:00,65.5,51.9,30.05,SE,135,3.4,5.4,61,0.00,,,0.00,WUHU216HW,2013-06-06 16:26:00,
2013-06-06 12:31:00,65.7,52.5,30.06,ESE,113,3.1,3.4,62,0.00,,,0.00,WUHU216HW,2013-06-06 16:31:00,
2013-06-06 12:36:00,65.7,52.5,30.06,SSE,158,2.7,3.4,62,0.00,,,0.00,WUHU216HW,2013-06-06 16:36:00,
2013-06-06 12:41:00,65.9,52.7,30.06,ESE,113,2.0,3.6,62,0.00,,,0.00,WUHU216HW,2013-06-06 16:41:00,
2013-06-06 12:46:00,65.7,52.5,30.06,ESE,113,3.1,3.6,62,0.00,,,0.00,WUHU216HW,2013-06-06 16:46:00,
2013-06-06 12:51:00,65.7,52.9,30.06,SSE,158,2.5,3.1,63,0.00,,,0.00,WUHU216HW,2013-06-06 16:51:00,
2013-06-06 12:56:00,65.7,52.9,30.06,SSE,158,4.3,4.3,63,0.00,,,0.00,WUHU216HW,2013-06-06 16:56:00,
2013-06-06 13:02:00,65.9,53.1,30.06,SE,135,1.8,4.3,63,0.00,,,0.00,WUHU216HW,2013-06-06 17:02:00,
2013-06-06 13:07:00,65.9,53.5,30.07,SE,135,3.4,4.3,64,0.00,,,0.00,WUHU216HW,2013-06-06 17:07:00,
2013-06-06 13:12:00,66.0,53.6,30.07,ESE,113,0.4,3.4,64,0.00,,,0.00,WUHU216HW,2013-06-06 17:12:00,
2013-06-06 13:17:00,66.4,53.6,30.06,SE,135,2.2,2.5,63,0.00,,,0.00,WUHU216HW,2013-06-06 17:17:00,
2013-06-06 13:22:00,66.8,53.5,30.06,SSE,158,2.5,2.5,62,0.00,,,0.00,WUHU216HW,2013-06-06 17:22:00,
2013-06-06 13:27:00,66.9,53.2,30.06,SE,135,3.8,4.9,61,0.00,,,0.00,WUHU216HW,2013-06-06 17:27:00,
2013-06-06 13:32:00,66.0,50.5,30.06,SSE,158,3.8,4.9,57,0.00,,,0.00,WUHU216HW,2013-06-06 17:32:00,
2013-06-06 13:37:00,65.7,50.2,30.06,ESE,113,2.2,3.8,57,0.00,,,0.00,WUHU216HW,2013-06-06 17:37:00,
2013-06-06 13:42:00,65.3,49.3,30.05,NNW,338,3.1,3.8,56,0.00,,,0.00,WUHU216HW,2013-06-06 17:42:00,
2013-06-06 13:47:00,65.1,49.1,30.05,ESE,113,1.3,3.1,56,0.00,,,0.00,WUHU216HW,2013-06-06 17:47:00,
2013-06-06 13:52:00,65.0,49.5,30.05,SSE,158,4.3,4.3,57,0.00,,,0.00,WUHU216HW,2013-06-06 17:52:00,
2013-06-06 13:57:00,64.8,49.3,30.05,SE,135,2.5,4.3,57,0.00,,,0.00,WUHU216HW,2013-06-06 17:57:00,
2013-06-06 14:02:00,64.6,49.1,30.05,SSW,203,3.8,4.3,57,0.00,,,0.00,WUHU216HW,2013-06-06 18:02:00,
2013-06-06 14:07:00,64.6,48.7,30.05,SE,135,2.5,3.8,56,0.00,,,0.00,WUHU216HW,2013-06-06 18:07:00,
2013-06-06 14:12:00,64.4,49.0,30.04,ENE,68,4.3,4.3,57,0.00,,,0.00,WUHU216HW,2013-06-06 18:12:00,
2013-06-06 14:17:00,64.2,48.8,30.05,NW,315,0.4,4.3,57,0.00,,,0.00,WUHU216HW,2013-06-06 18:17:00,
2013-06-06 14:23:00,64.1,48.7,30.05,SE,135,3.4,4.3,57,0.00,,,0.00,WUHU216HW,2013-06-06 18:23:00,
2013-06-06 14:28:00,64.1,49.2,30.05,ESE,113,3.8,3.8,58,0.00,,,0.00,WUHU216HW,2013-06-06 18:28:00,
2013-06-06 14:33:00,64.6,48.7,30.05,ESE,113,3.8,3.8,56,0.00,,,0.00,WUHU216HW,2013-06-06 18:33:00,
2013-06-06 14:38:00,68.0,49.3,30.05,SSE,158,4.3,4.3,51,0.00,,,0.00,WUHU216HW,2013-06-06 18:38:00,
2013-06-06 14:43:00,66.4,48.9,30.05,ESE,113,2.0,4.3,53,0.00,,,0.00,WUHU216HW,2013-06-06 18:43:00,
2013-06-06 14:48:00,64.8,49.8,30.04,SSE,158,2.0,4.3,58,0.00,,,0.00,WUHU216HW,2013-06-06 18:48:00,
2013-06-06 14:53:00,64.4,49.9,30.05,NW,315,1.1,4.0,59,0.00,,,0.00,WUHU216HW,2013-06-06 18:53:00,
2013-06-06 14:58:00,64.4,50.4,30.05,SE,135,3.6,4.0,60,0.00,,,0.00,WUHU216HW,2013-06-06 18:58:00,
2013-06-06 15:03:00,64.2,50.6,30.05,SE,135,2.7,3.6,61,0.00,,,0.00,WUHU216HW,2013-06-06 19:03:00,
2013-06-06 15:08:00,64.1,50.5,30.04,SSW,203,2.5,3.6,61,0.00,,,0.00,WUHU216HW,2013-06-06 19:08:00,
2013-06-06 15:13:00,64.1,51.0,30.04,WNW,293,1.1,2.7,62,0.00,,,0.00,WUHU216HW,2013-06-06 19:13:00,
2013-06-06 15:18:00,63.9,50.8,30.04,South,180,4.0,4.0,62,0.00,,,0.00,WUHU216HW,2013-06-06 19:18:00,
2013-06-06 15:24:00,63.9,51.2,30.04,SSE,158,0.4,4.5,63,0.00,,,0.00,WUHU216HW,2013-06-06 19:24:00,
2013-06-06 15:29:00,63.9,51.2,30.04,ESE,113,1.1,4.5,63,0.00,,,0.00,WUHU216HW,2013-06-06 19:29:00,
2013-06-06 15:34:00,63.7,51.5,30.04,SSE,158,1.3,1.8,64,0.00,,,0.00,WUHU216HW,2013-06-06 19:34:00,
2013-06-06 15:39:00,63.7,51.5,30.04,SE,135,2.7,3.4,64,0.00,,,0.00,WUHU216HW,2013-06-06 19:39:00,
2013-06-06 15:44:00,63.5,51.7,30.03,ESE,113,1.1,3.4,65,0.00,,,0.00,WUHU216HW,2013-06-06 19:44:00,
2013-06-06 15:49:00,65.0,53.1,30.03,SE,135,2.2,2.7,65,0.00,,,0.00,WUHU216HW,2013-06-06 19:49:00,
2013-06-06 15:54:00,64.6,53.1,30.03,East,90,3.6,3.6,66,0.00,,,0.00,WUHU216HW,2013-06-06 19:54:00,
2013-06-06 15:59:00,66.8,55.7,30.03,NE,45,1.8,3.6,67,0.00,,,0.00,WUHU216HW,2013-06-06 19:59:00,
2013-06-06 16:04:00,64.1,53.5,30.03,SSE,158,1.3,3.6,68,0.00,,,0.00,WUHU216HW,2013-06-06 20:04:00,
2013-06-06 16:09:00,63.5,53.3,30.03,SSW,203,0.9,2.5,69,0.00,,,0.00,WUHU216HW,2013-06-06 20:09:00,
2013-06-06 16:14:00,63.3,53.1,30.03,SSE,158,0.4,2.5,69,0.00,,,0.00,WUHU216HW,2013-06-06 20:14:00,
2013-06-06 16:19:00,63.2,53.4,30.03,ESE,113,0.4,0.9,70,0.00,,,0.00,WUHU216HW,2013-06-06 20:19:00,
2013-06-06 16:24:00,63.0,53.2,30.03,ESE,113,1.3,2.5,70,0.00,,,0.00,WUHU216HW,2013-06-06 20:24:00,
2013-06-06 16:29:00,62.8,53.0,30.02,SSE,158,3.1,3.1,70,0.00,,,0.00,WUHU216HW,2013-06-06 20:29:00,
2013-06-06 16:34:00,62.6,53.2,30.02,SE,135,1.8,3.1,71,0.00,,,0.00,WUHU216HW,2013-06-06 20:34:00,
2013-06-06 16:39:00,62.4,53.4,30.02,SE,135,0.7,3.1,72,0.00,,,0.00,WUHU216HW,2013-06-06 20:39:00,
2013-06-06 16:44:00,62.4,53.8,30.02,South,180,2.5,2.5,73,0.00,,,0.00,WUHU216HW,2013-06-06 20:44:00,
2013-06-06 16:49:00,62.1,53.5,30.02,ESE,113,1.1,2.5,73,0.00,,,0.00,WUHU216HW,2013-06-06 20:49:00,
2013-06-06 16:54:00,61.9,53.6,30.02,SE,135,0.9,2.5,74,0.00,,,0.00,WUHU216HW,2013-06-06 20:54:00,
2013-06-06 16:59:00,61.7,53.4,30.02,SSE,158,2.7,2.7,74,0.00,,,0.00,WUHU216HW,2013-06-06 20:59:00,
2013-06-06 17:04:00,65.0,59.7,30.02,SSE,158,3.1,3.1,83,0.00,,,0.00,WUHU216HW,2013-06-06 21:04:00,
2013-06-06 17:10:00,62.6,56.1,30.02,ESE,113,2.5,3.1,79,0.00,,,0.00,WUHU216HW,2013-06-06 21:10:00,
2013-06-06 17:15:00,63.3,57.8,30.02,SSE,158,2.2,3.1,82,0.00,,,0.00,WUHU216HW,2013-06-06 21:15:00,
2013-06-06 17:20:00,61.7,54.9,30.01,East,90,4.7,4.7,78,0.00,,,0.00,WUHU216HW,2013-06-06 21:20:00,
2013-06-06 17:25:00,61.5,54.7,30.01,SE,135,4.0,4.7,78,0.00,,,0.00,WUHU216HW,2013-06-06 21:25:00,
2013-06-06 17:30:00,61.0,53.8,30.01,NNE,23,0.4,4.7,77,0.00,,,0.00,WUHU216HW,2013-06-06 21:30:00,
2013-06-06 17:35:00,61.0,53.8,30.01,SE,135,1.8,4.0,77,0.00,,,0.00,WUHU216HW,2013-06-06 21:35:00,
2013-06-06 17:40:00,60.8,54.0,30.00,SE,135,0.4,2.2,78,0.00,,,0.00,WUHU216HW,2013-06-06 21:40:00,
2013-06-06 17:45:00,60.6,53.8,30.00,East,90,1.1,3.8,78,0.00,,,0.00,WUHU216HW,2013-06-06 21:45:00,
2013-06-06 17:50:00,60.5,54.0,30.00,ESE,113,0.4,3.8,79,0.00,,,0.00,WUHU216HW,2013-06-06 21:50:00,
2013-06-06 17:55:00,60.5,54.0,30.00,SE,135,3.6,3.6,79,0.00,,,0.00,WUHU216HW,2013-06-06 21:55:00,
2013-06-06 18:00:00,60.3,53.8,30.00,SSE,158,2.2,3.6,79,0.00,,,0.00,WUHU216HW,2013-06-06 22:00:00,
2013-06-06 18:05:00,60.3,53.8,30.00,SE,135,2.5,3.6,79,0.00,,,0.00,WUHU216HW,2013-06-06 22:05:00,
2013-06-06 18:10:00,60.3,54.2,30.00,SE,135,2.2,2.5,80,0.00,,,0.00,WUHU216HW,2013-06-06 22:10:00,
2013-06-06 18:15:00,60.3,54.2,30.00,SE,135,0.4,2.5,80,0.00,,,0.00,WUHU216HW,2013-06-06 22:15:00,
2013-06-06 18:20:00,65.1,64.5,30.00,SE,135,1.1,2.2,98,0.00,,,0.00,WUHU216HW,2013-06-06 22:20:00,
2013-06-06 18:25:00,68.9,68.6,30.00,SE,135,1.1,1.1,99,0.00,,,0.00,WUHU216HW,2013-06-06 22:25:00,
2013-06-06 18:30:00,61.7,58.4,30.00,SE,135,1.1,1.1,89,0.00,,,0.00,WUHU216HW,2013-06-06 22:30:00,
2013-06-06 18:35:00,60.8,56.3,30.01,ESE,113,1.8,1.8,85,0.00,,,0.00,WUHU216HW,2013-06-06 22:35:00,
2013-06-06 18:41:00,60.6,55.8,30.01,North,0,1.6,1.8,84,0.00,,,0.00,WUHU216HW,2013-06-06 22:41:00,
2013-06-06 18:46:00,60.3,55.1,30.01,NE,45,0.2,2.0,83,0.00,,,0.00,WUHU216HW,2013-06-06 22:46:00,
2013-06-06 18:51:00,60.3,55.1,30.01,NE,45,0.2,2.0,83,0.00,,,0.00,WUHU216HW,2013-06-06 22:51:00,
2013-06-06 18:56:00,60.1,55.3,30.01,WSW,248,0.7,0.7,84,0.00,,,0.00,WUHU216HW,2013-06-06 22:56:00,
2013-06-06 19:01:00,59.9,55.1,30.01,SE,135,0.4,1.8,84,0.00,,,0.00,WUHU216HW,2013-06-06 23:01:00,
2013-06-06 19:06:00,59.9,54.8,30.01,SSE,158,1.8,1.8,83,0.00,,,0.00,WUHU216HW,2013-06-06 23:06:00,
2013-06-06 19:11:00,59.7,54.6,30.02,SE,135,1.6,1.8,83,0.00,,,0.00,WUHU216HW,2013-06-06 23:11:00,
2013-06-06 19:16:00,59.7,54.9,30.02,ESE,113,0.0,1.8,84,0.00,,,0.00,WUHU216HW,2013-06-06 23:16:00,
2013-06-06 19:21:00,59.6,54.8,30.01,East,90,1.6,2.2,84,0.00,,,0.00,WUHU216HW,2013-06-06 23:21:00,
2013-06-06 19:26:00,59.6,54.5,30.01,SE,135,2.7,2.7,83,0.00,,,0.00,WUHU216HW,2013-06-06 23:26:00,
2013-06-06 19:31:00,59.4,54.6,30.01,SE,135,1.8,2.7,84,0.00,,,0.00,WUHU216HW,2013-06-06 23:31:00,
2013-06-06 19:37:00,60.3,57.0,30.01,ESE,113,2.0,2.7,89,0.00,,,0.00,WUHU216HW,2013-06-06 23:37:00,
2013-06-06 19:42:00,60.8,58.4,30.00,SSW,203,3.1,3.1,92,0.00,,,0.00,WUHU216HW,2013-06-06 23:42:00,
2013-06-06 19:47:00,63.2,62.9,30.01,ESE,113,2.5,3.1,99,0.00,,,0.00,WUHU216HW,2013-06-06 23:47:00,
2013-06-06 19:52:00,60.1,56.8,30.01,SE,135,2.9,3.1,89,0.00,,,0.00,WUHU216HW,2013-06-06 23:52:00,
2013-06-06 19:57:00,59.6,55.7,30.01,SE,135,2.2,2.9,87,0.00,,,0.00,WUHU216HW,2013-06-06 23:57:00,
2013-06-06 20:02:00,59.2,55.3,30.01,ESE,113,0.9,2.9,87,0.00,,,0.00,WUHU216HW,2013-06-07 00:02:00,
2013-06-06 20:07:00,59.0,55.1,30.01,SE,135,0.7,2.2,87,0.00,,,0.00,WUHU216HW,2013-06-07 00:07:00,
2013-06-06 20:12:00,59.0,55.1,30.01,SSE,158,2.5,2.5,87,0.00,,,0.00,WUHU216HW,2013-06-07 00:12:00,
2013-06-06 20:17:00,58.8,54.9,30.01,SE,135,0.9,2.5,87,0.00,,,0.00,WUHU216HW,2013-06-07 00:17:00,
2013-06-06 20:22:00,58.8,54.9,30.01,SSW,203,0.2,2.5,87,0.00,,,0.00,WUHU216HW,2013-06-07 00:22:00,
2013-06-06 20:27:00,58.8,54.9,30.01,ESE,113,2.0,2.0,87,0.00,,,0.00,WUHU216HW,2013-06-07 00:27:00,
2013-06-06 20:32:00,58.7,54.8,30.01,SE,135,2.0,2.0,87,0.00,,,0.00,WUHU216HW,2013-06-07 00:32:00,
2013-06-06 20:37:00,58.7,54.8,30.00,SE,135,1.6,2.0,87,0.00,,,0.00,WUHU216HW,2013-06-07 00:37:00,
2013-06-06 20:42:00,58.5,54.6,30.00,SE,135,2.7,2.7,87,0.00,,,0.00,WUHU216HW,2013-06-07 00:42:00,
2013-06-06 20:47:00,60.6,60.0,30.00,SE,135,1.1,2.7,98,0.00,,,0.00,WUHU216HW,2013-06-07 00:47:00,
2013-06-06 20:53:00,60.6,60.0,30.00,SE,135,1.1,2.7,98,0.00,,,0.00,WUHU216HW,2013-06-07 00:53:00,
2013-06-06 20:58:00,60.3,59.4,30.00,East,90,2.5,2.5,97,0.00,,,0.00,WUHU216HW,2013-06-07 00:58:00,
2013-06-06 21:03:00,62.1,61.8,29.99,SSE,158,2.5,2.5,99,0.00,,,0.00,WUHU216HW,2013-06-07 01:03:00,
2013-06-06 21:08:00,59.0,56.6,30.00,SE,135,1.8,2.5,92,0.00,,,0.00,WUHU216HW,2013-06-07 01:08:00,
2013-06-06 21:13:00,58.8,56.1,30.00,SE,135,1.6,2.5,91,0.00,,,0.00,WUHU216HW,2013-06-07 01:13:00,
2013-06-06 21:18:00,58.5,55.5,30.00,SE,135,1.1,1.8,90,0.00,,,0.00,WUHU216HW,2013-06-07 01:18:00,
2013-06-06 21:23:00,58.5,55.5,30.00,WNW,293,0.9,1.6,90,0.00,,,0.00,WUHU216HW,2013-06-07 01:23:00,
2013-06-06 21:28:00,58.3,55.3,30.00,SE,135,2.9,2.9,90,0.00,,,0.00,WUHU216HW,2013-06-07 01:28:00,
2013-06-06 21:33:00,58.1,55.2,30.01,South,180,0.0,2.9,90,0.00,,,0.00,WUHU216HW,2013-06-07 01:33:00,
2013-06-06 21:38:00,58.1,54.8,30.01,SSE,158,0.9,2.9,89,0.00,,,0.00,WUHU216HW,2013-06-07 01:38:00,
2013-06-06 21:43:00,58.1,54.8,30.01,SE,135,1.1,1.1,89,0.00,,,0.00,WUHU216HW,2013-06-07 01:43:00,
2013-06-06 21:48:00,57.9,55.0,30.01,NE,45,0.4,1.1,90,0.00,,,0.00,WUHU216HW,2013-06-07 01:48:00,
2013-06-06 21:53:00,57.9,54.7,30.01,SSE,158,0.9,1.1,89,0.00,,,0.00,WUHU216HW,2013-06-07 01:53:00,
2013-06-06 21:58:00,57.9,54.7,30.01,SSE,158,2.0,2.0,89,0.00,,,0.00,WUHU216HW,2013-06-07 01:58:00,
2013-06-06 22:03:00,65.7,65.4,30.01,SE,135,1.1,2.0,99,0.00,,,0.00,WUHU216HW,2013-06-07 02:03:00,
2013-06-06 22:08:00,59.6,59.0,30.01,SE,135,2.0,2.0,98,0.00,,,0.00,WUHU216HW,2013-06-07 02:08:00,
2013-06-06 22:13:00,59.9,59.6,30.00,ENE,68,0.4,2.0,99,0.00,,,0.00,WUHU216HW,2013-06-07 02:13:00,
2013-06-06 22:18:00,61.5,61.2,30.00,South,180,1.3,3.6,99,0.00,,,0.00,WUHU216HW,2013-06-07 02:18:00,
2013-06-06 22:23:00,58.8,57.3,30.00,ESE,113,2.0,3.6,95,0.00,,,0.00,WUHU216HW,2013-06-07 02:23:00,
2013-06-06 22:29:00,58.3,56.2,30.00,SSE,158,2.5,2.9,93,0.00,,,0.00,WUHU216HW,2013-06-07 02:29:00,
2013-06-06 22:34:00,58.1,56.0,30.00,SE,135,0.4,2.9,93,0.00,,,0.00,WUHU216HW,2013-06-07 02:34:00,
2013-06-06 22:39:00,57.9,55.6,30.00,SE,135,2.2,2.5,92,0.00,,,0.00,WUHU216HW,2013-06-07 02:39:00,
2013-06-06 22:44:00,57.8,55.5,29.99,ESE,113,2.2,2.2,92,0.00,,,0.00,WUHU216HW,2013-06-07 02:44:00,
2013-06-06 22:49:00,57.8,55.5,29.99,SE,135,2.2,2.5,92,0.00,,,0.00,WUHU216HW,2013-06-07 02:49:00,
2013-06-06 22:54:00,57.6,55.0,29.99,SE,135,3.4,3.4,91,0.00,,,0.00,WUHU216HW,2013-06-07 02:54:00,
2013-06-06 22:59:00,57.6,55.0,29.99,SE,135,2.5,3.4,91,0.00,,,0.00,WUHU216HW,2013-06-07 02:59:00,
2013-06-06 23:04:00,57.4,54.8,29.99,ESE,113,0.7,3.4,91,0.00,,,0.00,WUHU216HW,2013-06-07 03:04:00,
2013-06-06 23:09:00,57.4,54.8,29.99,SE,135,1.3,2.5,91,0.00,,,0.00,WUHU216HW,2013-06-07 03:09:00,
2013-06-06 23:14:00,57.4,54.8,29.99,SSE,158,0.9,1.8,91,0.00,,,0.00,WUHU216HW,2013-06-07 03:14:00,
2013-06-06 23:19:00,57.2,54.6,29.98,SSE,158,1.3,1.8,91,0.00,,,0.00,WUHU216HW,2013-06-07 03:19:00,
2013-06-06 23:24:00,59.7,59.4,29.98,SE,135,1.8,1.8,99,0.00,,,0.00,WUHU216HW,2013-06-07 03:24:00,
2013-06-06 23:29:00,60.3,60.0,29.97,East,90,1.8,1.8,99,0.00,,,0.00,WUHU216HW,2013-06-07 03:29:00,
2013-06-06 23:34:00,61.2,60.9,29.98,ESE,113,1.1,1.8,99,0.00,,,0.00,WUHU216HW,2013-06-07 03:34:00,
2013-06-06 23:39:00,58.7,58.1,29.98,SE,135,0.7,3.1,98,0.00,,,0.00,WUHU216HW,2013-06-07 03:39:00,
2013-06-06 23:44:00,58.3,57.4,29.98,SE,135,1.8,3.1,97,0.00,,,0.00,WUHU216HW,2013-06-07 03:44:00,
2013-06-06 23:50:00,58.1,56.9,29.97,ESE,113,1.1,1.8,96,0.00,,,0.00,WUHU216HW,2013-06-07 03:50:00,
2013-06-06 23:55:00,57.9,56.4,29.97,ESE,113,3.4,3.4,95,0.00,,,0.00,WUHU216HW,2013-06-07 03:55:00,